LVCTT SAME-SCEL

Flight info

Callsign LVCTT
Flight time 0h 33m
Altitude 30000
Route UMKAL2G UMKAL UMKAL7C
Aircraft C750/M-SBDE3FGHRWXY/S

Departure

Time 2026-05-09 02:38
Airport Governor Francisco Gabrielli International Airport (SAME)

Arrival

Time 2026-05-09 03:12
Airport Comodoro Arturo Merino Benítez International Airport (SCEL)
Time Latitude Longitude Altitude Speed Heading
2026-05-09 02:14 -32.82686 -68.79776 2323 ft 0 kts 269°
2026-05-09 02:30 -32.82686 -68.79775 2323 ft 1 kts 269°
2026-05-09 02:31 -32.82686 -68.79756 2323 ft 3 kts 275°
2026-05-09 02:31 -32.82689 -68.79732 2323 ft 3 kts 290°
2026-05-09 02:31 -32.82698 -68.79713 2323 ft 3 kts 325°
2026-05-09 02:31 -32.82710 -68.79706 2323 ft 1 kts
2026-05-09 02:32 -32.82715 -68.79707 2323 ft 0 kts
2026-05-09 02:34 -32.82689 -68.79702 2323 ft 10 kts 20°
2026-05-09 02:34 -32.82673 -68.79630 2323 ft 10 kts 95°
2026-05-09 02:34 -32.82652 -68.79522 2323 ft 16 kts 55°
2026-05-09 02:35 -32.82526 -68.79501 2323 ft 23 kts
2026-05-09 02:35 -32.82339 -68.79497 2323 ft 31 kts
2026-05-09 02:35 -32.82096 -68.79493 2323 ft 39 kts
2026-05-09 02:35 -32.81915 -68.79453 2323 ft 16 kts 42°
2026-05-09 02:36 -32.81897 -68.79372 2322 ft 7 kts 88°
2026-05-09 02:36 -32.81897 -68.79370 2322 ft 0 kts 88°
2026-05-09 02:36 -32.81911 -68.79347 2322 ft 8 kts 132°
2026-05-09 02:36 -32.81947 -68.79271 2321 ft 11 kts 152°
2026-05-09 02:37 -32.81982 -68.79267 2322 ft 0 kts 180°
2026-05-09 02:38 -32.82007 -68.79267 2322 ft 14 kts 181°
2026-05-09 02:38 -32.82267 -68.79271 2322 ft 84 kts 182°
2026-05-09 02:38 -32.83146 -68.79295 2518 ft 142 kts 181°
2026-05-09 02:38 -32.84152 -68.79338 3276 ft 147 kts 180°
2026-05-09 02:39 -32.85203 -68.79378 3993 ft 159 kts 180°
2026-05-09 02:39 -32.86347 -68.79379 4767 ft 166 kts 177°
2026-05-09 02:39 -32.87131 -68.79357 5223 ft 176 kts 177°
2026-05-09 02:39 -32.88436 -68.79355 5730 ft 200 kts 179°
2026-05-09 02:40 -32.90462 -68.79388 6539 ft 234 kts 180°
2026-05-09 02:40 -32.91570 -68.79405 7067 ft 244 kts 180°
2026-05-09 02:40 -32.93275 -68.79431 8246 ft 246 kts 180°
2026-05-09 02:40 -32.95019 -68.79457 9287 ft 255 kts 180°
2026-05-09 02:41 -32.96816 -68.79485 10265 ft 262 kts 180°
2026-05-09 02:41 -32.98718 -68.79510 10722 ft 287 kts 181°
2026-05-09 02:41 -33.00783 -68.79250 10907 ft 313 kts 163°
2026-05-09 02:41 -33.02623 -68.77851 11871 ft 315 kts 142°
2026-05-09 02:42 -33.03947 -68.75719 12528 ft 333 kts 118°
2026-05-09 02:42 -33.04457 -68.72987 13270 ft 346 kts 95°
2026-05-09 02:42 -33.03964 -68.70132 13924 ft 360 kts 71°
2026-05-09 02:42 -33.02929 -68.67384 14623 ft 368 kts 66°
2026-05-09 02:43 -33.01786 -68.64612 15265 ft 377 kts 65°
2026-05-09 02:43 -33.00670 -68.61749 15940 ft 385 kts 68°
2026-05-09 02:43 -32.99582 -68.58799 16601 ft 393 kts 68°
2026-05-09 02:43 -32.98443 -68.55795 17271 ft 402 kts 67°
2026-05-09 02:44 -32.97267 -68.52799 17931 ft 410 kts 66°
2026-05-09 02:44 -32.96009 -68.49716 18541 ft 419 kts 62°
2026-05-09 02:44 -32.94120 -68.47047 19103 ft 426 kts 37°
2026-05-09 02:44 -32.91516 -68.45454 19858 ft 419 kts 11°
2026-05-09 02:45 -32.88666 -68.45157 20502 ft 407 kts 346°
2026-05-09 02:45 -32.86055 -68.46175 21152 ft 387 kts 320°
2026-05-09 02:45 -32.84098 -68.48222 21753 ft 370 kts 300°
2026-05-09 02:45 -32.82912 -68.50906 21730 ft 368 kts 276°
2026-05-09 02:46 -32.82647 -68.53871 22416 ft 356 kts 264°
2026-05-09 02:46 -32.82793 -68.56792 23111 ft 355 kts 257°
2026-05-09 02:46 -32.83083 -68.59708 23833 ft 357 kts 256°
2026-05-09 02:46 -32.83270 -68.62680 24514 ft 364 kts 259°
2026-05-09 02:47 -32.83330 -68.65709 25141 ft 369 kts 259°
2026-05-09 02:47 -32.83420 -68.68765 25762 ft 371 kts 258°
2026-05-09 02:47 -32.83579 -68.71824 26397 ft 372 kts 257°
2026-05-09 02:47 -32.83735 -68.74914 26981 ft 377 kts 257°
2026-05-09 02:48 -32.83855 -68.78043 27570 ft 381 kts 257°
2026-05-09 02:48 -32.83971 -68.81160 28150 ft 384 kts 257°
2026-05-09 02:48 -32.84104 -68.84342 28744 ft 387 kts 256°
2026-05-09 02:48 -32.84244 -68.87548 29264 ft 391 kts 256°
2026-05-09 02:49 -32.84376 -68.90799 29835 ft 395 kts 256°
2026-05-09 02:49 -32.84504 -68.94072 30402 ft 398 kts 256°
2026-05-09 02:49 -32.84636 -68.97371 30905 ft 401 kts 255°
2026-05-09 02:49 -32.84773 -69.00706 31396 ft 406 kts 255°
2026-05-09 02:50 -32.84900 -69.04039 32113 ft 397 kts 255°
2026-05-09 02:50 -32.85030 -69.07346 32274 ft 407 kts 254°
2026-05-09 02:50 -32.85183 -69.10762 32277 ft 422 kts 254°
2026-05-09 02:50 -32.85324 -69.14309 32286 ft 436 kts 255°
2026-05-09 02:51 -32.85454 -69.17967 32275 ft 448 kts 255°
2026-05-09 02:51 -32.85735 -69.25487 32288 ft 460 kts 255°
2026-05-09 02:52 -32.86028 -69.33164 32268 ft 468 kts 255°
2026-05-09 02:52 -32.86300 -69.40878 32247 ft 463 kts 255°
2026-05-09 02:53 -32.86578 -69.48443 32240 ft 460 kts 255°
2026-05-09 02:53 -32.86839 -69.55920 31821 ft 431 kts 255°
2026-05-09 02:53 -32.86936 -69.59382 31162 ft 408 kts 254°
2026-05-09 02:54 -32.87068 -69.62681 30669 ft 397 kts 253°
2026-05-09 02:54 -32.87216 -69.65967 30088 ft 396 kts 253°
2026-05-09 02:54 -32.87329 -69.69258 29507 ft 397 kts 255°
2026-05-09 02:54 -32.87417 -69.72524 28931 ft 393 kts 255°
2026-05-09 02:55 -32.87525 -69.75767 28351 ft 391 kts 255°
2026-05-09 02:55 -32.87644 -69.78968 27794 ft 387 kts 255°
2026-05-09 02:55 -32.87754 -69.82151 27238 ft 381 kts 255°
2026-05-09 02:55 -32.87852 -69.85289 26681 ft 377 kts 255°
2026-05-09 02:56 -32.87959 -69.88414 26146 ft 376 kts 255°
2026-05-09 02:56 -32.88060 -69.91482 25587 ft 369 kts 255°
2026-05-09 02:56 -32.88156 -69.94479 25080 ft 366 kts 256°
2026-05-09 02:56 -32.88251 -69.97531 24506 ft 362 kts 256°
2026-05-09 02:57 -32.88283 -70.00519 23963 ft 368 kts 261°
2026-05-09 02:57 -32.87981 -70.03587 23751 ft 380 kts 263°
2026-05-09 02:57 -32.87711 -70.06661 22924 ft 369 kts 263°
2026-05-09 02:57 -32.87451 -70.09687 22403 ft 360 kts 263°
2026-05-09 02:58 -32.87185 -70.12660 21887 ft 362 kts 264°
2026-05-09 02:58 -32.86904 -70.15662 21345 ft 362 kts 265°
2026-05-09 02:58 -32.86625 -70.18580 20870 ft 359 kts 266°
2026-05-09 02:58 -32.86353 -70.21587 20322 ft 361 kts 266°
2026-05-09 02:59 -32.86085 -70.24495 19829 ft 357 kts 267°
2026-05-09 02:59 -32.85805 -70.27476 19298 ft 357 kts 268°
2026-05-09 02:59 -32.85534 -70.30360 18800 ft 355 kts 268°
2026-05-09 02:59 -32.85266 -70.33271 18285 ft 354 kts 269°
2026-05-09 03:00 -32.84996 -70.36162 17781 ft 349 kts 270°
2026-05-09 03:00 -32.84728 -70.39026 17294 ft 351 kts 270°
2026-05-09 03:00 -32.84460 -70.41904 16797 ft 351 kts 270°
2026-05-09 03:00 -32.84193 -70.44785 16301 ft 351 kts 271°
2026-05-09 03:01 -32.83919 -70.47668 15809 ft 350 kts 271°
2026-05-09 03:01 -32.83643 -70.50548 15309 ft 351 kts 271°
2026-05-09 03:01 -32.83377 -70.53380 14822 ft 333 kts 272°
2026-05-09 03:01 -32.83125 -70.56032 14369 ft 313 kts 272°
2026-05-09 03:02 -32.82888 -70.58533 13951 ft 296 kts 272°
2026-05-09 03:02 -32.82662 -70.60944 13528 ft 292 kts 272°
2026-05-09 03:02 -32.82436 -70.63378 13123 ft 310 kts 273°
2026-05-09 03:02 -32.82190 -70.66079 12687 ft 345 kts 273°
2026-05-09 03:03 -32.82386 -70.68895 12123 ft 341 kts 253°
2026-05-09 03:03 -32.83389 -70.71450 11659 ft 343 kts 234°
2026-05-09 03:03 -32.85002 -70.73514 11220 ft 340 kts 222°
2026-05-09 03:03 -32.86747 -70.75407 10748 ft 340 kts 221°
2026-05-09 03:04 -32.88494 -70.77307 10255 ft 340 kts 221°
2026-05-09 03:04 -32.90233 -70.79209 9652 ft 338 kts 220°
2026-05-09 03:04 -32.92230 -70.80552 9099 ft 320 kts 198°
2026-05-09 03:04 -32.94331 -70.80976 8686 ft 296 kts 181°
2026-05-09 03:05 -32.96294 -70.80872 8322 ft 280 kts 176°
2026-05-09 03:05 -32.98226 -70.80765 7932 ft 275 kts 177°
2026-05-09 03:05 -33.00126 -70.80674 7551 ft 272 kts 177°
2026-05-09 03:05 -33.02011 -70.80578 7156 ft 271 kts 176°
2026-05-09 03:06 -33.03887 -70.80476 6768 ft 269 kts 176°
2026-05-09 03:06 -33.05839 -70.80371 6516 ft 283 kts 176°
2026-05-09 03:06 -33.07820 -70.80265 6531 ft 288 kts 176°
2026-05-09 03:06 -33.09822 -70.80157 6525 ft 289 kts 176°
2026-05-09 03:07 -33.11836 -70.80047 6435 ft 290 kts 176°
2026-05-09 03:07 -33.13774 -70.79941 6157 ft 278 kts 176°
2026-05-09 03:07 -33.15599 -70.79842 5810 ft 263 kts 176°
2026-05-09 03:07 -33.17384 -70.79748 5460 ft 250 kts 177°
2026-05-09 03:08 -33.19093 -70.79656 5135 ft 241 kts 176°
2026-05-09 03:08 -33.20736 -70.79567 4828 ft 232 kts 176°
2026-05-09 03:08 -33.22317 -70.79487 4521 ft 224 kts 176°
2026-05-09 03:08 -33.23848 -70.79406 4230 ft 216 kts 176°
2026-05-09 03:09 -33.25239 -70.79333 3933 ft 183 kts 176°
2026-05-09 03:09 -33.26431 -70.79270 3721 ft 167 kts 176°
2026-05-09 03:09 -33.27610 -70.79208 3504 ft 170 kts 176°
2026-05-09 03:09 -33.28778 -70.79144 3290 ft 171 kts 176°
2026-05-09 03:10 -33.29970 -70.79080 3067 ft 171 kts 176°
2026-05-09 03:10 -33.31161 -70.79016 2841 ft 174 kts 176°
2026-05-09 03:10 -33.32387 -70.78948 2606 ft 177 kts 177°
2026-05-09 03:10 -33.33612 -70.78882 2371 ft 176 kts 177°
2026-05-09 03:11 -33.34839 -70.78820 2139 ft 175 kts 177°
2026-05-09 03:11 -33.36007 -70.78750 1954 ft 161 kts 177°
2026-05-09 03:11 -33.37079 -70.78696 1726 ft 148 kts 177°
2026-05-09 03:11 -33.38063 -70.78645 1576 ft 131 kts 177°
2026-05-09 03:12 -33.38873 -70.78603 1563 ft 96 kts 177°
2026-05-09 03:12 -33.39330 -70.78578 1561 ft 38 kts 178°
2026-05-09 03:12 -33.39492 -70.78592 1560 ft 17 kts 192°
2026-05-09 03:12 -33.39599 -70.78641 1560 ft 15 kts 207°
2026-05-09 03:13 -33.39683 -70.78691 1561 ft 3 kts 206°
2026-05-09 03:13 -33.39704 -70.78703 1561 ft 3 kts 206°
2026-05-09 03:13 -33.39723 -70.78717 1561 ft 3 kts 217°
2026-05-09 03:14 -33.39742 -70.78748 1561 ft 7 kts 246°
2026-05-09 03:14 -33.39752 -70.78817 1561 ft 10 kts 275°
2026-05-09 03:14 -33.39709 -70.78876 1561 ft 5 kts 339°
2026-05-09 03:14 -33.39674 -70.78885 1561 ft 4 kts
2026-05-09 03:15 -33.39616 -70.78884 1561 ft 9 kts
2026-05-09 03:15 -33.39554 -70.78889 1561 ft 9 kts 354°
2026-05-09 03:15 -33.39493 -70.78894 1561 ft 9 kts 356°
2026-05-09 03:15 -33.39432 -70.78899 1561 ft 9 kts 358°
2026-05-09 03:16 -33.39376 -70.78898 1561 ft 8 kts 358°
2026-05-09 03:16 -33.39321 -70.78901 1561 ft 8 kts 358°
2026-05-09 03:16 -33.39267 -70.78904 1561 ft 8 kts 358°
2026-05-09 03:16 -33.39076 -70.78913 1561 ft 77 kts 358°
2026-05-09 03:17 -33.38543 -70.78941 1561 ft 55 kts 356°
2026-05-09 03:17 -33.38283 -70.78954 1561 ft 28 kts 351°
2026-05-09 03:17 -33.38129 -70.79051 1561 ft 24 kts 326°
2026-05-09 03:17 -33.37995 -70.79152 1561 ft 19 kts 328°
2026-05-09 03:18 -33.37917 -70.79212 1561 ft 13 kts 327°
2026-05-09 03:18 -33.37876 -70.79272 1561 ft 6 kts 283°
2026-05-09 03:18 -33.37880 -70.79320 1561 ft 6 kts 249°
2026-05-09 03:18 -33.37900 -70.79349 1561 ft 2 kts 253°
2026-05-09 03:19 -33.37893 -70.79378 1561 ft 4 kts 311°
2026-05-09 03:19 -33.37879 -70.79389 1561 ft 2 kts 333°
2026-05-09 03:19 -33.37877 -70.79390 1561 ft 0 kts 329°
2026-05-09 03:19 -33.37871 -70.79395 1561 ft 3 kts 330°
2026-05-09 03:20 -33.37872 -70.79409 1561 ft 0 kts 193°
2026-05-09 03:20 -33.37873 -70.79405 1561 ft 0 kts 142°
2026-05-09 03:20 -33.37884 -70.79398 1561 ft 0 kts 149°